Weather History for Laconia, NH

Change the Weather History Date:

Thursday, November 7, 2013

  Actual Average Record
Temperature  
Mean Temperature 47 °F -  
Max Temperature 57 °F 49 °F 64 °F (2011)
Min Temperature 37 °F 32 °F 21 °F (1986)
Degree Days  
Heating Degree Days 18    
Moisture  
Dew Point 41 °F    
Average Humidity 73    
Maximum Humidity 94    
Minimum Humidity 56    
Precipitation  
Precipitation 0.01 in - - ()
Sea Level Pressure  
Sea Level Pressure 29.77 in    
Wind  
Wind Speed 9 mph (WSW)    
Max Wind Speed 16 mph    
Max Gust Speed 22 mph    
Visibility 10 miles    
Events      
Averages and records for this station are not official NWS values.
T = Trace of Precipitation, MM = Missing Value Source: NWS Daily Summary

Daily Weather History Graph

Daily Weather History Graph

Search for Another Location

Airport:

Trip Planner

Search our weather history database for the weather conditions in past years. The results will help you decide how hot, cold, wet, or windy it might be!

Date:

Astronomy

Nov. 07, 2013 Rise Set
Actual Time 6:29 AM EST 4:28 PM EST
Civil Twilight 5:59 AM EST 4:59 PM EST
Nautical Twilight 5:24 AM EST 5:33 PM EST
Astronomical Twilight 4:51 AM EST 6:06 PM EST
Moon 10:37 AM EST (11/7) 8:35 PM EST (11/7)
Length of Visible Light 10h 59m
Length of Day
9h 59m
Waxing Crescent, 22% of the Moon is Illuminated
Nov 7
Waxing Crescent
Nov 10
First Quarter
Nov 17
Full
Nov 25
Last Quarter
Dec 2
New

Hourly Weather History & Observations

Time (EST) Temp. Windchill Dew Point Humidity Pressure Visibility Wind Dir Wind Speed Gust Speed Precip Events Conditions
2:15 AM 53.6 °F - 44.6 °F 72% 29.90 in 10.0 mi SSW 11.5 mph - N/A   Mostly Cloudy
2:35 AM 53.6 °F - 44.6 °F 72% 29.89 in 10.0 mi SSW 10.4 mph - N/A   Mostly Cloudy
2:55 AM 53.6 °F - 44.6 °F 72% 29.89 in 10.0 mi SSW 10.4 mph - N/A   Mostly Cloudy
3:15 AM 53.6 °F - 44.6 °F 72% 29.86 in 10.0 mi SSW 12.7 mph 17.3 mph N/A   Overcast
3:35 AM 53.6 °F - 44.6 °F 72% 29.86 in 10.0 mi SSW 11.5 mph 18.4 mph N/A   Mostly Cloudy
3:55 AM 53.6 °F - 44.6 °F 72% 29.85 in 10.0 mi SSW 10.4 mph 19.6 mph N/A   Mostly Cloudy
4:15 AM 55.4 °F - 44.6 °F 67% 29.85 in 10.0 mi SSW 13.8 mph 19.6 mph N/A   Mostly Cloudy
4:35 AM 55.4 °F - 44.6 °F 67% 29.84 in 10.0 mi SSW 13.8 mph 18.4 mph N/A   Mostly Cloudy
4:55 AM 55.4 °F - 44.6 °F 67% 29.83 in 10.0 mi SSW 10.4 mph 19.6 mph N/A   Mostly Cloudy
5:15 AM 55.4 °F - 44.6 °F 67% 29.82 in 10.0 mi SSW 11.5 mph - N/A   Overcast
5:35 AM 55.4 °F - 44.6 °F 67% 29.81 in 10.0 mi South 11.5 mph 19.6 mph N/A   Overcast
5:55 AM 55.4 °F - 46.4 °F 72% 29.79 in 10.0 mi South 16.1 mph 21.9 mph N/A   Overcast
6:15 AM 55.4 °F - 46.4 °F 72% 29.79 in 10.0 mi SSW 11.5 mph 18.4 mph N/A   Overcast
6:35 AM 55.4 °F - 46.4 °F 72% 29.78 in 10.0 mi SW 8.1 mph - N/A   Overcast
6:55 AM 55.4 °F - 46.4 °F 72% 29.77 in 10.0 mi SSW 9.2 mph - N/A   Overcast
7:15 AM 55.4 °F - 48.2 °F 77% 29.77 in 10.0 mi SSW 9.2 mph - N/A   Mostly Cloudy
7:35 AM 57.2 °F - 48.2 °F 72% 29.78 in 10.0 mi SSW 11.5 mph - N/A   Overcast
7:55 AM 55.4 °F - 48.2 °F 77% 29.77 in 4.0 mi SSW 11.5 mph 16.1 mph N/A   Overcast
8:15 AM 55.4 °F - 50.0 °F 82% 29.77 in 3.0 mi SSW 9.2 mph - N/A   Overcast
8:35 AM 53.6 °F - 50.0 °F 88% 29.77 in 4.0 mi West 4.6 mph - N/A   Overcast
8:55 AM 53.6 °F - 50.0 °F 88% 29.76 in 2.5 mi WSW 3.5 mph - N/A   Overcast
9:15 AM 53.6 °F - 51.8 °F 94% 29.75 in 5.0 mi SW 6.9 mph - N/A   Overcast
9:35 AM 53.6 °F - 51.8 °F 94% 29.74 in 10.0 mi South 10.4 mph - N/A   Mostly Cloudy
9:55 AM 55.4 °F - 51.8 °F 88% 29.74 in 10.0 mi SW 8.1 mph - 0.01 in   Mostly Cloudy
10:15 AM 55.4 °F - 51.8 °F 88% 29.74 in 10.0 mi WSW 6.9 mph - N/A   Mostly Cloudy
10:35 AM 55.4 °F - 51.8 °F 88% 29.73 in 10.0 mi WSW 6.9 mph - N/A   Scattered Clouds
10:55 AM 55.4 °F - 51.8 °F 88% 29.72 in 10.0 mi SW 6.9 mph - N/A   Mostly Cloudy
11:15 AM 55.4 °F - 51.8 °F 88% 29.71 in 10.0 mi WSW 5.8 mph - N/A   Scattered Clouds
11:35 AM 55.4 °F - 51.8 °F 88% 29.71 in 10.0 mi SW 8.1 mph - N/A   Mostly Cloudy
11:55 AM 55.4 °F - 51.8 °F 88% 29.71 in 10.0 mi SW 10.4 mph - N/A   Overcast
12:15 PM 55.4 °F - 51.8 °F 88% 29.71 in 10.0 mi West 9.2 mph - N/A   Overcast
12:35 PM 53.6 °F - 48.2 °F 82% 29.70 in 10.0 mi West 6.9 mph 18.4 mph N/A   Overcast
12:55 PM 53.6 °F - 46.4 °F 77% 29.69 in 10.0 mi WSW 5.8 mph - N/A   Mostly Cloudy
1:15 PM 53.6 °F - 46.4 °F 77% 29.69 in 10.0 mi SW 6.9 mph - N/A   Mostly Cloudy
1:35 PM 53.6 °F - 46.4 °F 77% 29.69 in 10.0 mi West 3.5 mph - N/A   Mostly Cloudy
1:55 PM 53.6 °F - 44.6 °F 72% 29.68 in 10.0 mi West 5.8 mph - N/A   Mostly Cloudy
2:15 PM 53.6 °F - 44.6 °F 72% 29.67 in 10.0 mi West 10.4 mph - N/A   Mostly Cloudy
2:35 PM 51.8 °F - 42.8 °F 71% 29.68 in 10.0 mi WSW 6.9 mph - N/A   Mostly Cloudy
2:55 PM 51.8 °F - 42.8 °F 71% 29.70 in 10.0 mi WSW 6.9 mph - N/A   Overcast
3:15 PM 51.8 °F - 42.8 °F 71% 29.71 in 10.0 mi West 10.4 mph 17.3 mph N/A   Overcast
3:35 PM 50.0 °F - 39.2 °F 66% 29.71 in 10.0 mi West 6.9 mph - N/A   Overcast
3:55 PM 50.0 °F - 39.2 °F 66% 29.70 in 10.0 mi West 8.1 mph - N/A   Overcast
4:15 PM 48.2 °F - 39.2 °F 71% 29.71 in 10.0 mi NW 13.8 mph 21.9 mph N/A   Overcast
4:35 PM 48.2 °F - 39.2 °F 71% 29.72 in 10.0 mi West 5.8 mph - N/A   Mostly Cloudy
4:55 PM 46.4 °F 40.7 °F 39.2 °F 76% 29.73 in 10.0 mi NW 12.7 mph 18.4 mph N/A   Overcast
5:15 PM 46.4 °F 40.1 °F 37.4 °F 71% 29.74 in 10.0 mi WNW 15.0 mph 20.7 mph N/A   Mostly Cloudy
5:35 PM 46.4 °F 41.9 °F 35.6 °F 66% 29.75 in 10.0 mi West 9.2 mph 18.4 mph N/A   Partly Cloudy
5:55 PM 44.6 °F 39.7 °F 33.8 °F 66% 29.75 in 10.0 mi West 9.2 mph 18.4 mph N/A   Clear
6:15 PM 44.6 °F 39.7 °F 33.8 °F 66% 29.77 in 10.0 mi WNW 9.2 mph 19.6 mph N/A   Partly Cloudy
6:35 PM 44.6 °F 40.2 °F 33.8 °F 66% 29.77 in 10.0 mi NW 8.1 mph 17.3 mph N/A   Mostly Cloudy
6:55 PM 42.8 °F 38.6 °F 32.0 °F 66% 29.78 in 10.0 mi West 6.9 mph - N/A   Scattered Clouds
7:15 PM 42.8 °F 41.1 °F 32.0 °F 66% 29.79 in 10.0 mi WNW 3.5 mph - N/A   Scattered Clouds
7:35 PM 42.8 °F 38.6 °F 32.0 °F 66% 29.78 in 10.0 mi WNW 6.9 mph - N/A   Scattered Clouds
7:55 PM 41.0 °F - 30.2 °F 65% 29.79 in 10.0 mi Calm Calm - N/A   Partly Cloudy
8:15 PM 41.0 °F 38.0 °F 30.2 °F 65% 29.79 in 10.0 mi WNW 4.6 mph - N/A   Mostly Cloudy
8:35 PM 41.0 °F 39.0 °F 30.2 °F 65% 29.79 in 10.0 mi West 3.5 mph - N/A   Mostly Cloudy
8:55 PM 39.2 °F - 30.2 °F 70% 29.79 in 10.0 mi Calm Calm - N/A   Mostly Cloudy
9:15 PM 37.4 °F - 30.2 °F 75% 29.79 in 10.0 mi Calm Calm - N/A   Overcast
9:35 PM 39.2 °F 35.0 °F 28.4 °F 65% 29.79 in 10.0 mi West 5.8 mph - N/A   Overcast
9:55 PM 39.2 °F 35.0 °F 28.4 °F 65% 29.79 in 10.0 mi West 5.8 mph - N/A   Overcast
10:15 PM 39.2 °F 33.6 °F 28.4 °F 65% 29.78 in 10.0 mi West 8.1 mph - N/A   Overcast
10:35 PM 39.2 °F 34.2 °F 26.6 °F 61% 29.78 in 10.0 mi West 6.9 mph - N/A   Overcast
10:55 PM 39.2 °F 35.0 °F 26.6 °F 61% 29.79 in 10.0 mi West 5.8 mph - N/A   Overcast
11:15 PM 39.2 °F 34.2 °F 26.6 °F 61% 29.78 in 10.0 mi NW 6.9 mph 16.1 mph N/A   Overcast
11:35 PM 39.2 °F 32.0 °F 26.6 °F 61% 29.79 in 10.0 mi WNW 11.5 mph 18.4 mph N/A   Overcast
11:55 PM 39.2 °F 35.9 °F 24.8 °F 56% 29.79 in 10.0 mi NW 4.6 mph - N/A   Overcast